Pineville, LA

3:07 AM CST on February 21, 2017 (GMT -0600)
Alexandria Esler Regional

Weather History for KESF - November, 2012

Change the Weather History Date:

Saturday, November 24, 2012

  Actual Average Record
Temperature  
Mean Temperature 44 °F -  
Max Temperature 59 °F 65 °F 81 °F (1973)
Min Temperature 30 °F 40 °F 24 °F (1970)
Degree Days  
Heating Degree Days 20    
Moisture  
Dew Point 30 °F    
Average Humidity 60    
Maximum Humidity 89    
Minimum Humidity 28    
Precipitation  
Precipitation 0.00 in - - ()
Sea Level Pressure  
Sea Level Pressure 30.29 in    
Wind  
Wind Speed 4 mph (NW)    
Max Wind Speed 7 mph    
Max Gust Speed -    
Visibility 10 miles    
Events      
Averages and records for this station are not official NWS values.
T = Trace of Precipitation, MM = Missing Value Source: NWS Daily Summary

Daily Weather History Graph

Daily Weather History Graph

Search for Another Location

Airport or City:

Trip Planner

Search our weather history database for the weather conditions in past years. The results will help you decide how hot, cold, wet, or windy it might be!

Date:

Astronomy

Nov. 24, 2012 Rise Set
Actual Time 6:45 AM CST 5:06 PM CST
Civil Twilight 6:18 AM CST 5:33 PM CST
Nautical Twilight 5:49 AM CST 6:02 PM CST
Astronomical Twilight 5:19 AM CST 6:31 PM CST
Moon 2:42 PM CST (11/24) 3:13 AM CST (11/24)
Length of Visible Light 11h 14m
Length of Day
10h 21m
Waxing Gibbous, 87% of the Moon is Illuminated
Nov 24
Waxing Gibbous
Nov 28
Full
Dec 6
Last Quarter
Dec 13
New
Dec 19
First Quarter

Hourly Weather History & Observations

Time (CST) Temp. Windchill Dew Point Humidity Pressure Visibility Wind Dir Wind Speed Gust Speed Precip Events Conditions
12:53 AM 48.9 °F - 35.1 °F 59% 30.31 in 10.0 mi North 5.8 mph - N/A   Clear
1:53 AM 46.9 °F - 34.0 °F 61% 30.32 in 10.0 mi Variable 6.9 mph - N/A   Clear
2:53 AM 45.0 °F 41.8 °F 33.1 °F 63% 30.33 in 10.0 mi Variable 5.8 mph - N/A   Clear
3:53 AM 43.0 °F 38.8 °F 32.0 °F 65% 30.32 in 10.0 mi Variable 6.9 mph - N/A   Clear
4:53 AM 41.0 °F 38.0 °F 30.9 °F 67% 30.34 in 10.0 mi Variable 4.6 mph - N/A   Clear
5:53 AM 39.2 °F - 30.2 °F 70% 30.36 in 10.0 mi Calm Calm - N/A   Clear
6:53 AM 37.0 °F - 30.0 °F 76% 30.37 in 10.0 mi Calm Calm - N/A   Clear
7:53 AM 41.0 °F 38.0 °F 30.0 °F 65% 30.38 in 10.0 mi Variable 4.6 mph - N/A   Clear
8:53 AM 44.1 °F 40.8 °F 28.0 °F 53% 30.40 in 10.0 mi NNE 5.8 mph - N/A   Clear
9:53 AM 46.9 °F - 28.0 °F 48% 30.40 in 10.0 mi Variable 5.8 mph - N/A   Clear
10:53 AM 51.1 °F - 27.0 °F 39% 30.37 in 10.0 mi NNW 4.6 mph - N/A   Clear
11:53 AM 53.1 °F - 27.0 °F 37% 30.32 in 10.0 mi West 3.5 mph - N/A   Clear
12:53 PM 55.9 °F - 27.0 °F 33% 30.29 in 10.0 mi West 3.5 mph - N/A   Clear
1:53 PM 57.9 °F - 25.0 °F 28% 30.26 in 10.0 mi Variable 6.9 mph - N/A   Clear
2:53 PM 59.0 °F - 27.0 °F 29% 30.24 in 10.0 mi Variable 5.8 mph - N/A   Clear
3:53 PM 57.9 °F - 26.1 °F 30% 30.24 in 10.0 mi Variable 3.5 mph - N/A   Clear
4:53 PM 51.1 °F - 33.1 °F 50% 30.23 in 10.0 mi Calm Calm - N/A   Clear
5:53 PM 44.1 °F - 33.1 °F 65% 30.24 in 10.0 mi Calm Calm - N/A   Clear
6:53 PM 39.0 °F - 32.0 °F 76% 30.24 in 10.0 mi Calm Calm - N/A   Clear
7:53 PM 36.0 °F - 30.9 °F 82% 30.23 in 10.0 mi Calm Calm - N/A   Clear
8:53 PM 34.0 °F - 30.9 °F 89% 30.23 in 10.0 mi Calm Calm - N/A   Clear
9:53 PM 32.0 °F - 28.9 °F 88% 30.22 in 10.0 mi Calm Calm - N/A   Clear
10:53 PM 30.9 °F - 28.0 °F 89% 30.21 in 10.0 mi Calm Calm - N/A   Clear
11:53 PM 30.0 °F - 27.0 °F 88% 30.20 in 10.0 mi Calm Calm - N/A   Clear